Wind_Speed
32 36 28 27 30 30 33 34 32 35 27 26 29 30 33 33 28 24 23 23 22 19 15 16 15 18 19 20 19 17 19 17
33 25 22 25 31 34 25 44 39 37 28 30 31 34 35 36 31 25 21 19 16 17 17 15 15 18 20 15 17 16 12 15
30 30 26 20 29 33 37 43 61 41 41 40 26 34 32 29 21 19 16 13 14 14 13 16 20 21 20 17 20 17 18 21
29 27 25 24 23 30 38 45 49 43 52 45 30 34 26 21 20 13 13 15 11 12 16 21 22 24 20 21 20 18 22 25
27 29 23 32 21 32 32 42 28 35 41 52 51 31 23 16 11 12 10 11 16 17 18 18 18 18 19 17 19 23 26 28
28 28 21 24 37 28 37 35 38 41 36 37 28 25 16 17 14 15 14 14 15 16 18 20 15 13 16 19 23 27 30 34
25 25 30 29 35 36 41 44 36 33 38 26 19 13 14 15 14 11 14 14 16 15 14 13 13 16 20 24 28 32 35 37
21 26 29 33 35 28 27 31 34 26 18 19 19 16 12 11 12 14 13 15 15 11 12 15 18 22 25 29 33 36 39 41
17 28 33 32 36 26 27 30 18 21 16 14 14 15 11 10 15 16 13 13 11 12 16 19 22 26 30 33 37 40 41 42
14 14 19 18 21 20 17 15 13 13 16 15 14 15 14 14 14 14 11 10 12 16 20 23 27 30 33 36 39 41 41 41
17 17 18 18 17 14 11 10 10 10 10 12 16 14 13 14 10 10 10 13 17 21 25 30 33 34 37 39 41 41 40 45
7 8 11 12 11 11 10 10 11 11 12 13 16 9 12 9 10 12 15 18 21 25 28 33 36 38 41 42 41 43 45 47
5 8 9 10 10 8 10 11 12 13 14 16 12 13 12 11 14 18 19 23 27 29 33 38 39 41 45 41 41 46 49 53
8 8 8 8 9 11 12 12 12 13 14 16 16 12 16 17 20 23 25 28 32 36 37 40 40 44 45 44 47 57 55 52
9 8 8 9 11 12 12 14 12 11 13 16 15 19 20 24 25 28 31 32 35 38 39 40 44 45 46 48 53 60 62 60
13 13 12 12 12 14 14 14 14 14 14 18 20 21 23 27 32 35 37 37 41 39 41 44 48 46 47 49 53 62 64 63
14 15 15 16 15 17 19 17 17 16 15 17 23 25 25 29 32 35 35 38 40 43 46 48 50 52 53 56 61 66 63 67
17 17 17 18 17 18 21 22 21 20 21 21 25 29 31 33 35 36 35 38 44 48 51 56 56 56 58 57 65 63 67 70
20 19 20 19 18 17 20 21 27 25 25 24 29 32 34 34 34 37 38 43 48 52 57 53 58 62 63 70 62 68 69 73
22 22 20 18 19 20 20 22 22 19 25 29 31 32 31 36 35 35 38 47 50 54 58 60 63 65 64 61 72 76 75 74
Wind_Direction
242 234 229 249 254 254 259 250 252 247 254 253 264 264 259 254 248 238 233 235 233 237 252 264 272 282 286 295 301 303 301 304
257 205 230 263 252 251 263 240 250 241 252 252 256 258 257 259 255 247 224 228 231 240 246 259 275 280 285 298 308 309 300 305
264 268 282 285 303 268 278 280 249 236 258 250 258 263 249 245 221 212 224 236 240 245 258 268 276 279 291 297 301 298 302 304
263 261 261 256 262 262 276 263 243 250 251 248 252 254 222 204 211 202 218 226 239 247 254 278 288 291 291 303 300 296 299 300
275 260 260 252 265 265 254 260 244 268 257 251 255 231 220 197 192 207 211 225 246 254 272 290 280 282 293 292 294 297 301 307
269 253 251 246 218 243 252 259 267 274 250 240 217 202 181 184 193 218 229 241 254 267 273 281 285 286 286 294 298 304 306 306
261 240 238 235 237 251 256 257 262 226 230 213 194 184 187 194 210 230 243 253 272 275 271 272 282 293 308 306 305 302 303 303
238 232 236 232 236 242 247 251 231 220 160 152 156 167 200 218 233 246 249 265 269 266 278 291 307 312 304 302 301 300 299 299
226 228 224 217 248 239 236 229 203 142 145 164 169 193 213 228 243 244 255 252 258 289 301 304 305 302 299 298 296 296 298 298
147 153 171 166 135 117 110 106 122 163 186 193 207 204 220 239 241 236 246 271 293 294 298 300 297 295 296 296 296 297 299 300
102 102 100 103 104 109 116 138 166 188 198 215 217 221 239 245 243 254 275 286 292 297 299 299 297 297 299 300 304 304 303 306
117 114 122 129 133 144 158 180 198 214 225 239 220 228 238 242 258 270 279 288 294 295 299 304 299 293 298 305 306 306 302 306
162 153 159 167 174 189 208 209 220 226 235 243 243 224 238 260 268 275 284 292 292 295 296 300 302 299 298 305 307 312 309 303
197 188 183 195 215 229 235 235 237 239 235 241 236 227 240 259 269 276 287 293 292 291 293 303 308 305 300 302 307 310 311 305
226 221 221 234 240 241 242 244 254 262 256 244 250 254 248 264 274 280 285 291 298 296 299 303 307 308 297 298 305 310 312 312
243 250 253 258 258 254 259 260 258 258 260 262 264 264 267 271 279 281 284 288 299 299 307 303 297 309 311 303 303 310 312 311
248 250 254 257 263 261 264 264 259 261 266 270 275 281 281 278 285 282 282 286 300 299 301 303 302 300 308 309 303 307 304 306
263 267 269 269 271 260 258 259 258 262 265 274 281 285 284 282 283 283 281 293 298 300 304 304 303 303 306 301 302 302 303 307
272 279 281 274 274 267 259 266 255 257 266 278 282 288 289 287 284 279 287 295 294 301 303 300 299 305 305 304 300 302 310 308
272 280 276 273 275 270 268 273 282 294 289 284 287 286 284 284 284 282 284 289 293 302 299 295 300 302 304 298 300 305 307 307
Height
5790 5796 5798 5802 5803 5806 5807 5808 5810 5812 5812 5814 5815 5816 5818 5817 5816 5817 5820 5822 5823 5825 5827 5828 5827 5829 5827 5825 5825 5823 5822 5822
5785 5779 5789 5794 5796 5797 5800 5799 5802 5804 5806 5807 5808 5811 5812 5812 5813 5814 5815 5818 5819 5823 5824 5824 5823 5822 5822 5821 5822 5819 5818 5818
5783 5783 5783 5788 5786 5790 5793 5795 5793 5795 5799 5802 5804 5805 5806 5807 5809 5811 5813 5815 5818 5820 5820 5821 5819 5818 5818 5816 5816 5815 5815 5814
5780 5782 5782 5785 5786 5786 5782 5785 5784 5789 5791 5796 5799 5801 5802 5803 5805 5807 5811 5813 5815 5816 5816 5816 5815 5816 5814 5813 5813 5812 5812 5811
5773 5775 5777 5778 5781 5780 5782 5784 5786 5789 5792 5792 5794 5796 5799 5801 5805 5807 5808 5809 5812 5812 5811 5812 5811 5810 5809 5809 5810 5809 5806 5804
5769 5771 5772 5772 5767 5779 5780 5781 5780 5783 5783 5785 5789 5792 5796 5801 5803 5805 5806 5807 5809 5808 5809 5809 5807 5806 5808 5806 5805 5802 5800 5798
5764 5766 5770 5771 5773 5776 5777 5775 5773 5776 5780 5781 5785 5790 5795 5797 5800 5803 5804 5805 5806 5804 5804 5805 5805 5804 5801 5800 5799 5798 5794 5791
5758 5762 5763 5766 5768 5769 5770 5769 5770 5772 5776 5782 5786 5791 5794 5796 5797 5801 5800 5800 5801 5803 5802 5802 5799 5798 5798 5796 5794 5792 5789 5787
5755 5757 5759 5760 5762 5763 5766 5769 5769 5773 5777 5782 5785 5789 5793 5795 5796 5797 5797 5799 5798 5798 5798 5797 5795 5794 5793 5791 5789 5786 5782 5779
5755 5754 5754 5756 5760 5765 5767 5769 5771 5776 5780 5783 5786 5788 5790 5790 5793 5794 5795 5795 5794 5794 5794 5792 5790 5790 5788 5785 5782 5778 5775 5770
5758 5758 5759 5761 5763 5766 5769 5774 5777 5779 5780 5782 5783 5785 5785 5788 5789 5791 5790 5789 5791 5790 5788 5787 5785 5783 5780 5778 5774 5770 5767 5762
5761 5761 5762 5765 5766 5768 5771 5774 5777 5778 5778 5779 5779 5780 5783 5783 5786 5786 5786 5786 5785 5785 5783 5781 5778 5775 5772 5769 5766 5762 5757 5752
5764 5764 5765 5767 5768 5770 5773 5774 5775 5776 5776 5776 5777 5777 5778 5780 5782 5782 5781 5780 5780 5778 5776 5773 5770 5766 5763 5760 5757 5752 5748 5743
5766 5766 5767 5768 5770 5771 5772 5773 5774 5774 5775 5775 5774 5774 5776 5778 5778 5778 5776 5775 5774 5772 5769 5765 5761 5758 5753 5750 5745 5738 5738 5734
5766 5767 5768 5769 5770 5770 5771 5770 5771 5770 5770 5772 5773 5773 5773 5773 5773 5772 5770 5768 5766 5763 5760 5756 5752 5749 5744 5740 5734 5728 5721 5716
5766 5767 5768 5768 5768 5768 5768 5768 5768 5769 5770 5769 5769 5769 5769 5768 5766 5764 5762 5760 5757 5754 5751 5747 5743 5739 5733 5728 5721 5715 5710 5705
5765 5766 5766 5766 5766 5766 5765 5765 5765 5765 5765 5765 5765 5764 5762 5761 5759 5756 5754 5751 5748 5745 5742 5737 5733 5728 5720 5715 5710 5704 5699 5692
5762 5762 5762 5763 5763 5762 5762 5761 5761 5761 5760 5760 5760 5759 5757 5754 5751 5748 5745 5743 5739 5736 5732 5726 5722 5716 5710 5704 5698 5691 5684 5677
5758 5758 5758 5758 5758 5757 5757 5757 5756 5756 5757 5755 5754 5752 5751 5747 5744 5740 5737 5734 5730 5725 5721 5715 5711 5705 5699 5692 5686 5679 5671 5663
5755 5755 5754 5754 5754 5754 5753 5752 5751 5750 5751 5750 5747 5745 5743 5732 5736 5732 5728 5725 5720 5715 5711 5706 5699 5693 5685 5677 5671 5665 5656 5649